{"data":{"norad_id":57827,"epoch":"2026-09-20T05:50:35.749248Z","epoch_age_seconds":156785,"freshness":"FRESH","line1":"1 57827U 23138V   26263.24346932 -.00000585  00000+0 -11752-4 0  9997","line2":"2 57827  43.0035 215.3699 0001289 270.5009  89.5695 15.27576271168486","mean_motion":15.27576271,"eccentricity":0.0001289,"inclination_deg":43.0035,"raan_deg":215.3699,"arg_perigee_deg":270.5009,"mean_anomaly_deg":89.5695,"bstar":-1.1752e-5,"rev_number":16848,"period_min":94.266978830283,"perigee_km":482.17585370279,"apogee_km":483.94467035694,"semimajor_km":6861.1972620299,"source":"CELESTRAK","updated_at":"2026-09-21T09:00:33.710664Z"}}